Location: Croydon
(51.3762°N, 0.0982°W)
Time: 16:20:59
(UTC+01:00)

VELOX 1 - Pass Details

Date: 26 April 2019
Orbit: 629 x 644 km, 98.2° (Epoch: 24 May)

Event Time Altitude Azimuth Distance (km) Brightness Sun altitude
Exits shadow 02:20:01 54° 269° (W) 773 ? -22.9°
Drops below altitude 10° 02:24:09 10° 337° (NNW) 2,022 ? -22.6°
Sets 02:26:25 0° 342° (NNW) 2,936 ? -22.5°
